Regional Weather Roundup
Issued by NWS Northern Indiana

Home | Current Version | Previous Version | Text Only | Print | Product List | Glossary Off
Versions: 1 2 3 4 5 6 7 8 9 10 11 12 13 14 15 16 17 18 19 20 21 22 23 24 25 26 27 28 29 30 31 32 33 34 35 36 37 38 39 40 41 42 43 44 45 46 47 48 49 50

000
ASUS43 KIWX 030210
RWRIWX

KIWX WEATHER ROUNDUP
NATIONAL WEATHER SERVICE NORTHERN INDIANA
900 PM EST MON MAR 02 2015

NOTE: "FAIR" INDICATES FEW OR NO CLOUDS BELOW 12,000 FEET WITH NO
SIGNIFICANT WEATHER AND/OR OBSTRUCTIONS TO VISIBILITY.

* THESE STATIONS ARE NOT UNDER NWS QUALITY CONTROL. THEY ALSO MAY NOT
  REPORT WEATHER SUCH AS PRECIPITATION OR FOG.

INZ001>027-030300-
NORTHERN INDIANA

CITY           SKY/WX    TMP DP  RH WIND       PRES   REMARKS
GARY*          MOCLDY    28  12  50 SE7       30.37  WCI  21
VALPARAISO     CLOUDY    24  15  68 S7        30.37S WCI  16
MICHIGAN CITY* MOCLDY    28  10  47 S6        30.37F WCI  22
LAPORTE*       MOCLDY    27  15  60 S5        30.37S WCI  22
KNOX*            N/A     27   5  39 S5        30.37S WCI  21
SOUTH BEND     MOCLDY    27  14  58 S7        30.36F WCI  19
ELKHART*       MOCLDY    27  12  54 S5        30.37F WCI  21
GOSHEN         MOCLDY    25  15  66 S5        30.36F WCI  19
MONTICELLO*    PTCLDY    24  16  69 CALM      30.38S
LOGANSPORT*    MOCLDY    21  16  79 S5        30.38F WCI  15
ROCHESTER*     PTCLDY    27  16  63 CALM      30.37F
WARSAW*        MOCLDY    27  14  59 CALM      30.36F
ANGOLA*        CLEAR     19  14  79 CALM      30.35F
FORT WAYNE     MOCLDY    20  13  74 S7        30.39F WCI  11
HUNTINGTON*    PTCLDY    22  10  59 S3        30.38F
PERU/GRISSOM   CLOUDY    22  14  72 SE6       30.36F WCI  14
MARION*        PTCLDY    22  12  66 SE5       30.39F WCI  15

$$
INZ028>050-030300-
CENTRAL INDIANA

CITY           SKY/WX    TMP DP  RH WIND       PRES   REMARKS
LAFAYETTE      MOCLDY    24  15  68 CALM      30.39R
KOKOMO*        PTCLDY    21  14  73 SE5       30.38F WCI  15
MUNCIE*        MOCLDY    24  14  65 SE7       30.37F WCI  16
INDIANAPOLIS   CLOUDY    27  15  61 E5        30.36F WCI  22

$$
MIZ043>046-050>051-056>058-064>065-071>073-077>080-030300-
SOUTHWEST LOWER MICHIGAN

CITY           SKY/WX    TMP DP  RH WIND       PRES   REMARKS
BATTLE CREEK   MOCLDY    24  13  62 S6        30.35F WCI  17
BENTON HARBOR  MOCLDY    23  17  78 SE5       30.35F WCI  17
COLDWATER*     PTCLDY    16  11  80 SE5       30.35F WCI   9
HILLSDALE*     MOCLDY    21  11  67 S3        30.35S
HOLLAND        CLOUDY    22  15  75 CALM      30.36F
GRAND RAPIDS   CLOUDY    22  13  68 S5        30.35F WCI  16
KALAMAZOO      PTCLDY    23  13  65 CALM      30.34F
STURGIS*       MOCLDY    25  16  68 CALM      30.34F
THREE RIVERS*  FAIR      24  15  68 SE3       30.35F

$$
OHZ001>008-015>018-024>025-030300-
NORTHWEST OHIO

CITY           SKY/WX    TMP DP  RH WIND       PRES   REMARKS
WAUSEON*       FAIR      16  10  79 S6        30.39F WCI   7
DEFIANCE       MOCLDY    22  14  71 S7        30.41F WCI  13
FINDLAY        MOCLDY    16   9  74 SE6       30.40F WCI   7
TOLEDO EXPRESS MOCLDY    20  13  74 S6        30.40F WCI  12
TOLEDO METCALF MOCLDY    17  10  74 S8        30.41F WCI   7
LIMA           CLOUDY    19  10  68 S7        30.39F WCI  10

$$
AND FOR LAKE MICHIGAN COASTAL AND OPEN LAKE BUOY OBSERVATIONS

STATION/POSITION TEMP    WIND        PRES    VSBY  WAVE
                 AIR SEA DIR/SP/G                  HT/PER
                 (F)     (DEG/KT/KT) (MB)    (MI)  (FT/S)
CALUMET HARBOR    27                   N/A
MICHIGAN CITY     27     150/  7/  9   N/A
SAINT JOSEPH      25      CALM  /  4 1027.8F

$$
&&


USA.gov is the U.S. government's official web portal to all federal, state and local government web resources and services.